Location: Unspecified
(0.0000°N, 0.0000°E)
Time: 10:49:15
(UTC+00:00)

S-56A Canister/Altair - Pass Details

Date: 30 November 2023
Orbit: 640 x 2488 km, 38.9° (Epoch: 24 February)

Event Time Altitude Azimuth Distance (km) Brightness Sun altitude
Rises 18:26:29 0° 348° (NNW) 4,061 11.1 -8.8°
Reaches altitude 10° 18:30:36 10° 10° (N) 3,450 10.5 -9.7°
Maximum altitude 18:35:33 16° 44° (NE) 3,424 10.3 -10.9°
Enters shadow 18:38:52 14° 64° (ENE) 3,827 10.4 -11.6°
